User: anonymous
Location: Newark
(40.7360°N, 74.1730°W)
Time: 16:58:17
(UTC-04:00)
Language:

ISS - Orbit

View from above orbital plane
View from above orbital plane
View from above satellite
View from above satellite

Ground track
Ground track

The orbit data is extracted from the following two-line orbital elements,

1 25544U 98067A   14239.57212942  .00000012  00000-0  21231-6 0  9753
2 25544 051.6450 105.7670 0003005 073.2984 286.8862 15.50003709902405
Epoch (UTC): 27 August 2014 13:43:51
Eccentricity: 0.0003005
inclination: 51.6450°
perigee height: 414 km
apogee height: 419 km
right ascension of ascending node: 105.7670°
argument of perigee: 73.2984°
revolutions per day: 15.50003709
mean anomaly at epoch: 286.8862°
orbit number at epoch: 90240

The dashed part of the orbit path shows where the satellite is in the earth's shadow,  

DLR